Date String (YYYY-MM-DD hh:mm:ss) UTC,Instrument flags,absolute air pressure of the measurement (hPa),sample flow rate (lpm),inlet stack bypass flow (lpm),air temperature of the measurement (°C),ambient temperature measured by the external sensor (°C),aerosol sample conditioner tube jacket temperature (°C),OPC LED temperature (°C),internal box temperature (°C),relative humidity of the measurement (%),span deviation,mass concentration of particles derived from Lorenz-Mie calculation of OPC scattering (μg/m³),mass concentration of particles derived from Lorenz-Mie calculation of OPC scattering (μg/m³),mass concentration of particles derived from Lorenz-Mie calculation of OPC scattering (μg/m³)
DateTimeUTC,F1_M11,P_M11,Q1_M11,Q2_M11,T1_M11,T2_M11,T3_M11,T4_M11,T5_M11,U1_M11,ZSPAN_M11,X2_M11,X0_M11,X1_M11
2024-02-26 16:00:00,SystemResetWarning,0819.3,5.00,000.00,020.6,020.0,000.0,028.7,022.3,13.6,0000.0,0001.30,0005.75,0000.57
2024-02-26 16:01:00,SystemResetWarning,0819.3,5.00,000.00,020.7,020.0,000.0,028.7,022.3,13.7,0000.0,0001.38,0006.10,0000.59
2024-02-26 16:02:00,SystemResetWarning,0819.4,5.01,000.00,020.6,020.0,000.0,028.7,022.3,13.9,0000.0,0001.39,0006.18,0000.61
2024-02-26 16:03:00,SystemResetWarning,0819.4,5.00,000.00,020.7,020.0,000.0,028.7,022.3,14.0,0000.0,0001.38,0005.96,0000.62
2024-02-26 16:04:00,SystemResetWarning,0819.3,5.00,000.00,020.7,020.0,000.0,028.7,022.4,13.9,0000.0,0001.42,0006.08,0000.62
2024-02-26 16:05:00,SystemResetWarning,0819.4,5.00,000.00,020.7,020.0,000.0,028.7,022.4,13.8,0000.0,0001.38,0006.10,0000.62
2024-02-26 16:06:00,SystemResetWarning,0819.4,5.00,000.00,020.7,020.0,000.0,028.7,022.4,13.9,0000.0,0001.33,0005.35,0000.61
2024-02-26 16:07:00,SystemResetWarning,0819.4,5.00,000.00,020.7,020.0,000.0,028.7,022.4,13.9,0000.0,0001.36,0006.93,0000.61
2024-02-26 16:08:00,SystemResetWarning,0819.3,5.01,000.00,020.7,020.0,000.0,028.8,022.4,14.0,0000.0,0001.37,0007.11,0000.62
2024-02-26 16:09:00,SystemResetWarning,0819.4,5.00,000.00,020.7,020.1,000.0,028.8,022.4,13.9,0000.0,0001.38,0007.30,0000.62
2024-02-26 16:10:00,SystemResetWarning,0819.4,5.00,000.00,020.7,020.1,000.0,028.8,022.4,14.0,0000.0,0001.38,0007.26,0000.62
2024-02-26 16:11:00,SystemResetWarning,0819.4,5.00,000.00,020.7,020.1,000.0,028.8,022.4,13.7,0000.0,0001.36,0006.78,0000.62
2024-02-26 16:12:00,SystemResetWarning,0819.5,4.99,000.00,020.7,020.1,000.0,028.8,022.4,13.7,0000.0,0001.36,0006.77,0000.61
2024-02-26 16:13:00,SystemResetWarning,0819.4,4.99,000.00,020.7,020.1,000.0,028.8,022.4,13.3,0000.0,0001.38,0006.77,0000.61
2024-02-26 16:14:00,SystemResetWarning,0819.3,4.99,000.00,020.7,020.1,000.0,028.8,022.4,13.6,0000.0,0001.37,0006.73,0000.60
2024-02-26 16:15:00,SystemResetWarning,0819.4,5.00,000.00,020.7,020.1,000.0,028.8,022.4,14.0,0000.0,0001.36,0006.72,0000.59
2024-02-26 16:16:00,SystemResetWarning,0819.4,5.01,000.00,020.7,020.1,000.0,028.8,022.4,13.8,0000.0,0001.44,0007.00,0000.58
2024-02-26 16:17:00,SystemResetWarning,0819.3,5.00,000.00,020.7,020.1,000.0,028.8,022.4,13.8,0000.0,0001.45,0006.63,0000.58
2024-02-26 16:18:00,SystemResetWarning,0819.3,5.01,000.00,020.7,020.1,000.0,028.8,022.4,13.5,0000.0,0001.44,0004.51,0000.58
2024-02-26 16:19:00,SystemResetWarning,0819.4,5.00,000.00,020.7,020.1,000.0,028.8,022.4,13.7,0000.0,0001.44,0004.45,0000.57
2024-02-26 16:20:00,SystemResetWarning,0819.4,5.00,000.00,020.7,020.1,000.0,028.8,022.4,13.9,0000.0,0001.46,0004.93,0000.58
2024-02-26 16:21:00,SystemResetWarning,0819.3,5.00,000.00,020.8,020.1,000.0,028.8,022.4,14.3,0000.0,0001.45,0004.74,0000.57
2024-02-26 16:22:00,SystemResetWarning,0819.2,4.99,000.00,020.8,020.1,000.0,028.8,022.4,13.9,0000.0,0001.42,0004.16,0000.57
2024-02-26 16:23:00,SystemResetWarning,0819.3,5.00,000.00,020.8,020.1,000.0,028.8,022.4,13.9,0000.0,0001.38,0004.00,0000.56
2024-02-26 16:24:00,SystemResetWarning,0819.3,5.00,000.00,020.8,020.1,000.0,028.8,022.4,14.0,0000.0,0001.40,0004.42,0000.57
2024-02-26 16:25:00,SystemResetWarning,0819.3,5.00,000.00,020.8,020.1,000.0,028.8,022.4,13.9,0000.0,0001.39,0004.58,0000.57
2024-02-26 16:26:00,SystemResetWarning,0819.3,5.00,000.00,020.8,020.1,000.0,028.8,022.4,14.0,0000.0,0001.44,0005.54,0000.58
2024-02-26 16:27:00,SystemResetWarning,0819.3,5.00,000.00,020.8,020.1,000.0,028.9,022.4,14.3,0000.0,0001.39,0005.75,0000.57
2024-02-26 16:28:00,SystemResetWarning,0819.3,5.00,000.00,020.8,020.1,000.0,028.9,022.5,14.3,0000.0,0001.37,0005.71,0000.57
2024-02-26 16:29:00,SystemResetWarning,0819.2,5.00,000.00,020.8,020.1,000.0,028.9,022.5,14.1,0000.0,0001.42,0006.76,0000.57
2024-02-26 16:30:00,SystemResetWarning,0819.3,5.00,000.00,020.8,020.1,000.0,028.9,022.5,13.6,0000.0,0001.49,0007.38,0000.58
2024-02-26 16:31:00,SystemResetWarning,0819.3,5.00,000.00,020.8,020.1,000.0,028.9,022.5,13.4,0000.0,0001.51,0007.31,0000.58
2024-02-26 16:32:00,SystemResetWarning,0819.3,5.01,000.00,020.8,020.1,000.0,028.9,022.5,13.1,0000.0,0001.51,0007.32,0000.58
2024-02-26 16:33:00,SystemResetWarning,0819.4,5.01,000.00,020.8,020.1,000.0,028.9,022.5,13.1,0000.0,0001.52,0007.30,0000.58
2024-02-26 16:34:00,SystemResetWarning,0819.4,5.00,000.00,020.8,020.2,000.0,028.9,022.5,13.4,0000.0,0001.49,0007.31,0000.59
2024-02-26 16:35:00,SystemResetWarning,0819.4,4.98,000.00,020.8,020.2,000.0,028.9,022.5,13.4,0000.0,0001.45,0006.83,0000.58
2024-02-26 16:36:00,SystemResetWarning,0819.4,5.00,000.00,020.8,020.2,000.0,028.9,022.5,13.4,0000.0,0001.41,0006.73,0000.57
2024-02-26 16:37:00,SystemResetWarning,0819.4,5.01,000.00,020.8,020.2,000.0,028.9,022.5,13.3,0000.0,0001.36,0005.69,0000.58
2024-02-26 16:38:00,SystemResetWarning,0819.4,4.99,000.00,020.8,020.2,000.0,028.9,022.5,12.7,0000.0,0001.34,0005.10,0000.59
2024-02-26 16:39:00,SystemResetWarning,0819.4,5.00,000.00,020.9,020.2,000.0,028.9,022.6,13.0,0000.0,0001.36,0005.19,0000.59
2024-02-26 16:40:00,SystemResetWarning,0819.4,4.99,000.00,020.9,020.2,000.0,028.9,022.5,13.1,0000.0,0001.31,0004.17,0000.60
2024-02-26 16:41:00,SystemResetWarning,0819.4,4.99,000.00,020.9,020.2,000.0,028.9,022.6,12.7,0000.0,0001.26,0003.78,0000.60
2024-02-26 16:42:00,SystemResetWarning,0819.4,5.00,000.00,020.9,020.2,000.0,028.9,022.6,12.5,0000.0,0001.23,0003.32,0000.61
2024-02-26 16:43:00,SystemResetWarning,0819.3,5.01,000.00,020.9,020.2,000.0,029.0,022.6,12.3,0000.0,0001.22,0003.27,0000.61
2024-02-26 16:44:00,SystemResetWarning,0819.3,5.01,000.00,020.9,020.2,000.0,028.9,022.6,12.2,0000.0,0001.25,0003.21,0000.62
2024-02-26 16:45:00,SystemResetWarning,0819.4,4.99,000.00,020.9,020.3,000.0,029.0,022.6,11.8,0000.0,0001.28,0003.22,0000.63
2024-02-26 16:46:00,SystemResetWarning,0819.4,4.99,000.00,020.9,020.3,000.0,029.0,022.6,11.7,0000.0,0001.28,0003.36,0000.65
2024-02-26 16:47:00,SystemResetWarning,0819.3,4.99,000.00,020.9,020.3,000.0,029.0,022.6,11.6,0000.0,0001.29,0003.37,0000.66
2024-02-26 16:48:00,SystemResetWarning,0819.3,5.00,000.00,020.9,020.3,000.0,029.0,022.6,11.8,0000.0,0001.33,0003.51,0000.66
2024-02-26 16:49:00,SystemResetWarning,0819.3,5.01,000.00,020.9,020.3,000.0,029.0,022.6,11.5,0000.0,0001.37,0003.75,0000.66
2024-02-26 16:50:00,SystemResetWarning,0819.2,5.01,000.00,020.9,020.3,000.0,029.0,022.6,11.6,0000.0,0001.38,0003.68,0000.67
2024-02-26 16:51:00,SystemResetWarning,0819.2,5.00,000.00,020.9,020.3,000.0,029.0,022.6,11.5,0000.0,0001.41,0003.69,0000.66
2024-02-26 16:52:00,SystemResetWarning,0819.1,5.00,000.00,020.9,020.3,000.0,029.0,022.6,11.6,0000.0,0001.45,0003.64,0000.67
2024-02-26 16:53:00,SystemResetWarning,0819.2,5.01,000.00,020.9,020.3,000.0,029.0,022.6,11.6,0000.0,0001.45,0003.61,0000.66
2024-02-26 16:54:00,SystemResetWarning,0819.2,5.00,000.00,020.9,020.3,000.0,029.0,022.6,11.6,0000.0,0001.44,0003.59,0000.66
2024-02-26 16:55:00,SystemResetWarning,0819.2,5.00,000.00,020.9,020.3,000.0,029.0,022.6,11.4,0000.0,0001.40,0003.52,0000.65
2024-02-26 16:56:00,SystemResetWarning,0819.3,5.00,000.00,020.9,020.3,000.0,029.0,022.6,11.6,0000.0,0001.43,0003.56,0000.65
2024-02-26 16:57:00,SystemResetWarning,0819.2,5.00,000.00,021.0,020.3,000.0,029.0,022.7,11.6,0000.0,0001.46,0003.56,0000.65
2024-02-26 16:58:00,SystemResetWarning,0819.1,4.99,000.00,021.0,020.3,000.0,029.0,022.7,11.6,0000.0,0001.50,0003.62,0000.65
2024-02-26 16:59:00,SystemResetWarning,0819.1,5.00,000.00,021.0,020.3,000.0,029.1,022.7,11.4,0000.0,0001.55,0003.74,0000.65
